User: anonymous   Login
Location: Koslow
(50.3020°N, 18.5663°E)
Time: 15:26:17
(UTC+00:00)
Language:

STARLINK-1337 - Orbit

View from above orbital plane
View from above orbital plane
View from above satellite
View from above satellite

Ground track
Ground track

The orbit data is extracted from the following two-line orbital elements,

1 45582C 20025BD  20225.42444232 -.01121866  00000-0 -45036-1 0  2257
2 45582  53.0008 214.0598 0001454  68.7322  77.1382 15.25562139    11
Epoch (UTC): 12 August 2020 10:11:11
Eccentricity: 0.0001454
inclination: 53.0008°
perigee height: 488 km
apogee height: 490 km
right ascension of ascending node: 214.0598°
argument of perigee: 68.7322°
revolutions per day: 15.25562139
mean anomaly at epoch: 77.1382°
orbit number at epoch: 1

The dashed part of the orbit path shows where the satellite is in the earth's shadow,  

DLR